Theta_e
349 354 355 357 359 359 359 361 361 360 359 360 361 361 360 360 360 359 359 356 357 360 362 361 362 362 361 362 359 357 357 359 359 361 361 360 358 359 360 359 360 355 359
350 354 358 358 359 360 361 362 361 361 360 361 361 361 360 360 360 360 360 360 360 360 360 361 361 362 361 361 361 359 359 361 360 361 361 361 360 360 360 360 359 357 358
349 356 357 361 360 361 361 361 361 360 361 360 361 361 361 360 359 359 360 359 360 361 361 360 361 361 360 360 361 361 361 361 361 361 359 357 358 360 361 361 360 359 359
353 356 356 362 361 361 361 361 361 360 361 361 360 361 361 361 360 360 360 358 357 357 358 358 359 360 360 361 360 360 361 362 362 360 357 355 356 360 359 359 359 358 357
355 358 360 361 362 361 361 361 361 361 361 361 362 360 360 360 360 360 359 358 359 358 357 358 360 361 362 362 362 362 362 362 360 358 358 358 356 359 359 359 357 358 357
355 357 360 362 361 362 361 361 361 361 361 361 361 361 360 361 361 360 359 360 361 360 359 359 360 361 362 362 362 361 361 360 359 359 358 358 359 359 360 359 359 357 357
353 357 358 362 362 362 361 362 361 360 361 361 361 360 360 361 360 360 359 359 359 359 360 360 362 361 361 359 360 360 360 359 358 357 357 359 359 360 357 355 355 354 355
354 357 357 360 362 362 361 359 360 360 359 359 360 360 360 359 359 358 357 357 358 358 359 358 359 361 361 359 358 359 358 356 355 356 357 357 358 356 354 354 354 353 353
355 356 358 358 361 362 362 360 360 360 360 360 360 360 360 361 360 359 357 357 357 358 357 357 358 360 359 359 357 357 357 353 351 354 349 351 356 354 353 353 352 352 352
355 356 358 360 359 360 360 362 362 360 361 360 361 362 363 361 359 360 360 361 357 357 357 357 357 358 360 360 355 355 355 350 351 355 352 352 356 352 351 352 352 352 352
353 353 354 356 359 360 361 361 360 361 361 361 362 361 359 358 359 358 359 360 358 357 357 357 357 359 359 360 357 358 350 346 345 347 348 352 353 350 350 351 352 353 354
348 349 355 356 355 358 358 363 362 360 363 363 362 361 358 363 359 353 358 358 359 359 357 358 359 359 356 357 357 360 353 346 344 345 347 350 350 350 351 351 352 354 355
345 347 352 356 357 357 359 359 361 359 357 358 360 360 358 357 355 352 356 355 357 356 358 357 357 358 357 356 351 353 349 343 343 345 346 350 352 352 352 353 355 356 357
348 350 351 356 359 359 359 359 358 355 355 355 358 359 358 353 354 356 351 353 357 357 358 357 356 358 358 358 354 349 344 342 342 345 347 351 353 355 356 356 357 359 360
346 350 351 356 358 359 358 357 356 356 356 358 359 359 358 355 354 354 353 354 358 360 356 356 355 353 352 353 355 349 344 345 343 346 349 350 355 355 356 358 359 360 361
345 348 350 353 357 357 356 357 356 357 358 360 360 358 356 353 355 355 355 356 360 360 357 355 356 353 352 351 348 347 346 344 346 349 350 352 351 355 357 358 360 361 362
345 349 350 352 355 356 355 356 356 356 358 359 358 359 359 359 356 355 358 358 357 361 362 358 356 356 352 350 348 347 347 348 347 348 350 353 353 348 352 355 357 358 359
347 349 351 349 351 353 355 356 356 356 357 357 358 359 359 360 353 358 357 356 360 361 360 360 355 352 352 352 353 353 354 353 354 353 353 353 355 353 356 354 357 359 360
348 350 351 352 350 352 356 355 356 357 355 355 359 360 359 355 352 358 355 354 360 362 362 357 354 355 352 352 352 353 356 357 357 355 358 356 356 355 356 360 358 356 360
348 351 352 352 354 354 354 355 354 354 351 356 359 359 358 359 357 360 354 360 363 362 361 362 354 352 353 352 350 352 354 356 358 357 356 356 356 358 358 362 364 364 361
348 349 352 352 354 353 350 350 349 348 349 352 357 358 357 356 354 360 351 361 362 362 363 363 352 355 351 358 355 350 350 353 356 357 357 356 356 358 360 361 361 356 355
347 349 351 352 354 353 351 353 352 352 351 351 357 360 356 354 356 360 353 359 361 361 365 362 361 356 349 351 356 352 345 347 352 352 356 353 354 358 359 357 355 357 356
346 349 351 353 354 355 355 353 354 354 354 351 354 356 358 353 357 362 359 360 359 363 360 363 363 360 348 349 352 352 344 341 347 350 351 353 354 354 354 352 350 353 355
345 348 351 353 353 355 356 354 355 349 346 348 352 356 357 355 358 361 361 359 358 362 364 363 362 360 360 351 351 349 352 352 345 342 348 350 349 348 350 350 350 352 353
345 346 350 353 354 355 355 356 352 352 355 352 354 356 358 359 358 360 361 359 354 362 365 364 365 362 358 356 351 350 351 346 348 344 338 343 346 349 349 352 352 355 357
345 346 348 351 352 355 354 355 355 354 353 350 352 352 352 355 357 360 360 361 361 362 363 365 366 363 362 358 356 354 349 344 343 344 342 342 338 346 353 356 358 359 360
Wind_Speed
4 6 3 5 8 9 10 11 12 13 13 12 13 13 12 12 12 12 12 11 10 11 13 13 13 13 13 12 14 14 13 13 14 14 16 16 15 15 15 13 9 14 13
10 8 5 7 9 9 9 11 13 12 12 13 13 13 12 12 12 13 12 11 11 11 11 12 12 13 13 11 14 14 13 12 13 13 14 17 14 13 14 15 14 13 13
11 8 10 8 9 10 11 11 11 12 13 11 12 12 13 13 13 12 12 12 12 11 11 10 11 12 12 13 12 12 12 12 13 14 11 10 12 13 15 15 14 13 12
10 9 9 9 10 11 11 11 10 11 11 12 12 12 12 12 12 12 13 14 14 12 11 10 11 12 14 16 13 13 14 14 13 10 8 8 11 13 14 14 13 12 10
10 8 9 11 11 12 11 11 11 10 10 11 10 12 11 12 13 13 13 15 14 15 14 13 13 13 15 17 16 14 14 14 12 10 10 9 8 11 12 11 11 12 12
10 8 10 12 11 12 11 11 11 10 10 9 11 11 12 11 12 13 12 13 14 12 13 13 10 13 16 15 14 14 14 13 11 10 9 8 11 11 12 11 13 11 11
10 8 8 10 11 11 11 12 11 10 9 10 10 9 11 11 11 13 12 12 12 11 12 14 14 14 14 13 12 13 12 11 9 9 8 9 11 10 12 11 10 10 9
9 8 8 9 12 11 11 11 11 9 8 9 9 11 11 11 12 12 11 11 10 10 11 12 13 13 12 12 11 10 10 8 8 8 8 8 9 10 10 9 9 9 8
8 8 7 8 10 11 10 12 10 9 10 8 10 12 11 12 12 11 10 10 9 9 10 10 11 11 8 9 9 10 10 8 8 6 6 5 8 9 8 7 7 7 7
8 8 7 6 8 7 8 10 9 10 10 10 10 12 13 12 10 10 4 8 9 8 8 8 8 8 7 9 10 11 10 7 7 5 5 6 6 6 6 6 5 5 5
7 7 6 7 6 5 6 8 8 11 11 9 11 11 7 6 7 7 10 7 8 7 6 7 7 8 8 10 9 10 5 4 5 4 4 5 4 4 4 4 4 5 5
9 7 6 6 7 6 6 7 6 7 6 6 6 6 4 5 6 7 7 8 7 6 5 4 4 5 2 3 4 7 4 5 4 4 4 2 2 2 3 3 4 5 6
9 7 7 7 6 5 5 5 3 4 4 5 6 4 4 4 4 4 3 4 3 5 3 1 2 2 5 3 4 4 5 5 3 3 5 2 4 5 5 5 6 7 7
10 9 8 7 6 5 4 4 4 4 4 4 4 4 3 3 4 4 4 4 3 3 4 3 3 4 4 5 5 6 6 4 3 3 4 4 5 6 7 7 8 8 8
11 10 9 8 7 6 5 4 4 4 3 3 3 4 3 4 4 3 3 3 3 3 4 4 5 6 6 7 6 6 6 5 5 2 2 1 4 6 6 7 8 9 10
11 10 10 9 8 6 5 6 5 3 3 2 2 3 4 3 3 3 2 3 3 3 4 4 5 6 6 7 7 6 6 5 3 2 2 1 4 6 8 9 9 10 10
10 10 11 10 8 7 7 6 4 3 3 3 3 2 2 3 3 4 3 4 4 3 3 3 4 5 6 5 5 5 4 4 2 1 1 1 0 3 5 7 8 7 10
10 10 10 9 9 9 7 5 3 3 3 2 2 2 2 1 3 3 3 4 4 3 2 2 3 4 4 4 3 3 3 3 1 1 2 3 2 4 4 8 9 8 10
11 10 11 9 10 10 7 4 4 4 3 2 1 0 2 3 2 3 4 3 3 3 3 2 3 2 3 3 2 3 3 2 2 1 2 4 5 5 5 4 8 10 10
11 10 10 8 8 8 6 4 3 2 2 3 2 2 3 2 3 1 2 2 2 3 4 3 4 4 4 4 3 4 3 2 1 2 3 4 5 6 6 6 6 6 6
12 12 11 9 7 7 6 6 5 4 4 3 3 4 3 1 3 1 0 1 3 4 5 3 4 4 4 3 1 4 4 3 2 1 2 3 4 3 3 3 3 5 5
13 13 10 9 9 8 6 6 4 5 3 3 3 2 4 3 2 1 1 2 4 3 5 4 2 2 3 4 1 1 1 3 1 2 2 3 4 2 2 1 4 6 7
14 14 12 11 10 8 7 6 5 5 3 4 4 4 4 3 3 2 2 2 3 2 4 4 4 2 3 3 3 2 2 1 2 1 1 1 1 2 3 4 6 6 6
14 13 13 12 11 9 9 8 10 8 6 5 5 3 3 4 3 2 3 2 2 2 4 3 4 4 0 1 1 3 3 3 2 1 2 1 3 5 4 5 5 4 6
13 13 13 12 12 10 9 8 8 7 6 5 4 6 4 4 4 3 2 1 2 0 2 3 3 4 3 2 2 1 1 3 2 2 4 2 2 2 3 4 3 1 2
12 13 13 14 13 11 10 10 11 11 9 7 7 6 5 4 4 4 4 3 2 1 1 1 1 2 2 3 2 2 2 1 2 1 2 2 3 2 2 2 2 3 4
Wind_Direction
131 114 108 94 94 94 91 89 85 92 89 89 86 87 90 86 85 84 86 90 93 84 79 84 85 84 85 96 99 98 98 99 104 99 97 91 86 87 85 84 98 83 81
123 117 108 104 95 100 94 93 93 99 95 84 89 89 89 85 80 80 85 89 89 86 85 82 83 83 86 97 103 107 108 104 96 87 90 91 87 82 89 83 66 81 78
119 119 123 108 109 107 101 100 98 97 95 96 94 91 83 81 83 85 85 85 84 84 86 93 93 82 85 95 96 105 96 91 96 90 85 82 87 82 79 79 79 79 75
118 123 121 113 112 106 106 106 98 98 98 95 88 87 85 86 82 84 84 83 81 83 80 87 93 92 88 91 94 97 94 88 90 89 81 76 82 77 77 76 77 72 84
115 113 120 125 121 115 113 115 110 102 101 99 90 88 95 92 87 83 90 98 91 85 76 78 89 93 89 87 88 87 88 86 85 86 82 74 74 75 72 81 89 78 60
125 123 121 129 125 123 117 112 110 106 105 97 93 90 80 87 82 88 91 90 91 94 105 101 94 82 79 79 84 85 88 88 91 83 88 89 70 84 77 73 73 69 66
126 126 126 128 122 120 125 119 114 113 108 99 91 84 81 70 81 87 83 90 92 83 75 72 74 94 86 78 80 82 84 82 85 83 80 73 81 76 64 65 66 67 65
129 125 121 131 132 132 127 122 119 113 104 94 87 80 90 89 88 86 88 92 90 87 78 73 75 93 86 85 90 92 85 81 89 82 66 66 56 65 65 64 63 60 57
123 117 112 116 130 129 128 122 118 117 103 101 100 94 97 86 84 87 94 95 96 88 83 78 79 84 89 104 102 95 95 78 80 69 81 73 63 62 62 63 62 61 58
133 124 114 112 118 133 135 130 125 115 109 109 104 86 77 83 85 80 92 100 102 101 96 86 83 80 76 123 104 105 97 92 81 83 79 70 58 65 61 57 55 51 45
135 134 136 126 114 112 128 132 134 110 103 91 83 72 78 79 82 83 79 96 97 95 88 83 86 88 79 117 119 110 113 89 90 76 78 63 55 69 61 44 32 19 6
153 150 148 145 130 113 121 111 108 82 85 85 88 87 96 80 68 70 64 63 61 50 44 43 67 103 141 108 128 145 78 88 90 85 81 19 20 27 28 8 1 353 353
161 164 168 155 142 134 118 119 115 115 109 106 93 78 72 84 72 49 64 49 41 42 32 27 77 75 77 79 87 96 83 82 94 98 84 337 337 342 346 339 345 338 337
169 167 163 160 148 146 124 134 123 116 115 108 90 69 66 61 51 35 42 58 42 23 20 37 70 74 93 100 91 82 81 82 93 79 95 345 335 329 336 337 332 324 330
174 172 171 165 165 156 154 138 128 119 108 96 86 59 58 44 37 44 53 17 12 8 48 50 66 65 78 87 87 84 77 71 68 64 53 343 296 297 311 320 315 327 334
177 175 170 174 171 166 163 148 133 138 120 111 97 79 67 37 28 30 40 29 18 31 51 47 53 69 77 84 93 92 77 74 68 33 31 63 287 305 307 308 312 323 322
179 171 173 175 175 173 169 158 150 149 150 136 102 67 66 6 21 16 30 16 25 36 80 76 90 87 92 96 94 100 102 99 89 80 280 306 218 242 285 292 304 314 329
177 178 174 175 173 173 167 170 162 143 130 115 93 4 333 19 31 37 19 28 13 34 58 106 112 91 94 74 83 86 97 110 141 205 269 303 312 292 254 275 291 302 310
184 178 181 180 177 176 170 168 171 140 156 119 94 77 79 91 72 23 22 26 17 29 44 79 122 71 92 74 83 78 62 70 30 21 324 281 280 281 306 323 319 309 315
185 187 184 187 182 178 155 157 155 143 127 126 148 155 114 105 107 71 34 22 42 48 53 72 96 75 56 31 45 73 58 57 309 330 326 322 0 337 318 340 329 326 329
184 186 186 183 183 181 174 181 171 175 158 161 163 158 159 169 184 190 175 27 46 51 39 111 111 83 56 38 181 108 83 68 56 317 320 357 46 333 341 8 336 332 359
184 190 182 191 181 184 182 181 184 168 177 162 156 168 199 185 196 223 325 49 41 68 58 69 109 122 74 35 32 175 140 165 123 30 23 25 35 312 300 327 327 342 341
187 186 186 185 189 187 177 157 128 126 125 164 179 182 188 190 190 199 196 45 56 31 69 45 42 40 118 56 26 323 197 9 323 153 175 67 352 280 323 334 321 334 334
189 186 189 190 193 195 185 186 170 178 177 189 183 169 173 197 214 231 173 117 67 35 67 55 49 28 355 165 169 54 45 21 345 292 209 218 286 285 326 325 337 301 319
188 190 189 195 201 193 196 209 188 188 185 171 165 168 181 188 204 214 191 191 158 209 102 58 57 51 58 31 30 90 74 90 78 312 320 14 265 286 333 340 2 337 294
191 191 187 190 204 201 198 204 200 190 180 174 177 182 186 195 196 195 194 224 227 248 228 124 32 75 73 76 84 98 65 40 81 310 291 8 347 19 22 51 359 6 350